Location: Chèvreville
(49.1099°N, 2.8495°E)
Time: 08:25:37
(UTC+00:00)

CUTE-I - Visible Passes

Search period start: 02 December 2023 00:00
Search period end: 12 December 2023 00:00
Orbit: 808 x 822 km, 98.7° (Epoch: 01 December)

Date Brightness Start Highest point End Pass type
(mag) Time Alt. Az. Time Alt. Az. Time Alt. Az.
02 Dec ? 04:44:27 10° NE 04:47:14 14° E 04:50:00 10° ESE visible
02 Dec ? 06:22:36 10° NNE 06:28:00 87° ESE 06:33:22 10° SSW visible
02 Dec ? 17:48:45 10° SSW 17:53:42 40° W 17:58:43 10° NNW visible
03 Dec ? 06:00:28 10° NNE 06:05:46 59° ESE 06:11:03 10° S visible
03 Dec ? 17:26:11 10° S 17:31:25 61° WSW 17:36:42 10° NNW visible
04 Dec ? 05:38:27 10° NNE 05:43:29 39° E 05:48:28 10° SSE visible
04 Dec ? 17:03:53 10° SSE 17:09:12 90° NNW 17:14:34 10° NNW visible
04 Dec ? 18:47:05 10° WSW 18:49:57 14° W 18:52:48 10° NW visible
05 Dec ? 05:16:38 10° NE 05:21:06 26° E 05:25:33 10° SSE visible
05 Dec ? 16:41:50 10° SSE 16:47:02 61° ENE 16:52:19 10° N visible
05 Dec ? 18:23:24 10° SW 18:27:28 22° W 18:31:32 10° NW visible
06 Dec ? 04:55:07 10° NE 04:58:39 18° E 05:02:11 10° SE visible
06 Dec ? 06:33:53 10° NNE 06:39:15 77° WNW 06:44:37 10° SSW visible
06 Dec ? 16:20:01 10° SE 16:24:58 42° ENE 16:29:57 10° N visible
06 Dec ? 18:00:18 10° SSW 18:05:03 33° W 18:09:50 10° NNW visible
07 Dec ? 04:34:32 10° ENE 04:36:07 11° E 04:37:43 10° ESE visible
07 Dec ? 06:11:41 10° NNE 06:17:03 72° ESE 06:22:25 10° S visible
07 Dec ? 17:37:35 10° S 17:42:42 49° W 17:47:54 10° NNW visible
08 Dec ? 05:49:36 10° NNE 05:54:48 48° E 05:59:58 10° S visible
08 Dec ? 17:15:09 10° S 17:20:27 74° WSW 17:25:48 10° NNW visible
08 Dec ? 18:59:40 10° WSW 19:01:22 11° W 19:03:06 10° WNW visible
09 Dec ? 05:27:39 10° NNE 05:32:27 32° E 05:37:13 10° SSE visible
09 Dec ? 16:52:58 10° SSE 16:58:15 75° ENE 17:03:36 10° NNW visible
09 Dec ? 18:35:17 10° SW 18:38:50 18° W 18:42:24 10° NW visible
10 Dec ? 05:05:58 10° NE 05:10:02 22° E 05:14:06 10° SE visible
10 Dec ? 06:45:09 10° N 06:50:28 63° WNW 06:55:46 10° SSW visible
10 Dec ? 16:31:01 10° SE 16:36:08 50° ENE 16:41:17 10° N visible
10 Dec ? 18:11:55 10° SSW 18:16:22 27° W 18:20:52 10° NW visible
11 Dec ? 04:44:43 10° NE 04:47:33 14° E 04:50:21 10° ESE visible
11 Dec ? 06:22:54 10° NNE 06:28:18 88° ESE 06:33:41 10° SSW visible
11 Dec ? 17:49:02 10° SSW 17:53:59 40° W 17:59:01 10° NNW visible
